Location: Mount Kobau Star Party
(49.1167°N, 119.7333°W)
Time: 13:39:34
(UTC-07:00)

ACS3 Solar Sail - Pass Details

Date: 24 June 2024
Orbit: 992 x 1023 km, 97.4° (Epoch: 12 July)

Event Time Altitude Azimuth Distance (km) Brightness Sun altitude
Exits shadow 22:26:37 - 171° (S) 2,905 6.7 -9.7°
Reaches altitude 10° 22:27:00 10° 171° (S) 2,756 6.6 -9.7°
Maximum altitude 22:33:13 78° 258° (WSW) 1,018 5.0 -10.3°
Drops below altitude 10° 22:39:28 10° 345° (NNW) 2,765 8.5 -10.9°
Sets 22:41:58 0° 347° (NNW) 3,718 9.4 -11.1°
